Tracking 30746 objects as of 20-Jun-2025
HD Live streaming from Space Station
objects crossing your sky now

STARLINK-30152

Track STARLINK-30152 now!
10-day predictions
STARLINK-30152 is classified as:


NORAD ID: 56828
Int'l Code: 2023-079F
Perigee: 565.6 km
Apogee: 566.9 km
Inclination: 43.0 °
Period: 95.8 minutes
Semi major axis: 6937 km
RCS: Unknown
Launch date: June 4, 2023
Source: United States (US)
Launch site: AIR FORCE EASTERN TEST RANGE (AFETR)
Your satellite tracking list
Your tracking list is empty




NASA's NSSDC Master Catalog

Two Line Element Set (TLE):
1 56828U 23079F   25170.49322576  .00000016  00000-0  16224-4 0  9999
2 56828  43.0035  97.4350 0000941 270.4717  89.6017 15.02536194113299
Source of the keplerian elements: AFSPC